EW9927 Weather Reports


time (UTC)temp
F
wind
direction
speed
knots
gust
knots
rain 1hr
in
rain 24hr
in
rain mn
in
humidity
%
barometer
mb
20260506213209 90 238 1.7 5.2 0.00 0.00 0.00 71 1006.4
20260506212437 91 269 1.7 3.5 0.00 0.00 0.00 69 1006.4
20260506211931 90 198 0.9 5.2 0.00 0.00 0.00 69 1006.4
20260506211422 90 118 1.7 5.2 0.00 0.00 0.00 69 1006.4
20260506210914 90 150 0.0 3.5 0.00 0.00 0.00 70 1006.4
20260506210414 90 145 0.0 5.2 0.00 0.00 0.00 70 1006.4
20260506205907 89 146 0.0 5.2 0.00 0.00 0.00 71 1006.4
20260506204853 89 195 0.9 3.5 0.00 0.00 0.00 70 1006.4
20260506204616 89 230 0.0 3.5 0.00 0.00 0.00 72 1006.8
20260506203844 89 125 0.0 3.5 0.00 0.00 0.00 71 1006.8
20260506203336 90 142 0.0 3.5 0.00 0.00 0.00 71 1006.8
20260506203047 89 152 0.9 3.5 0.00 0.00 0.00 72 1006.8
20260506202327 88 148 0.0 5.2 0.00 0.00 0.00 73 1006.8
20260506201819 87 119 0.0 5.2 0.00 0.00 0.00 74 1006.8
20260506201311 88 155 0.0 2.6 0.00 0.00 0.00 73 1006.8
20260506200804 89 157 0.0 3.5 0.00 0.00 0.00 71 1006.8
20260506200304 88 153 0.9 5.2 0.00 0.00 0.00 73 1007.1
20260506200017 87 159 0.0 5.2 0.00 0.00 0.00 73 1007.1
20260506195249 88 171 3.5 5.2 0.00 0.00 0.00 73 1007.1
20260506194741 88 124 0.0 3.5 0.00 0.00 0.00 72 1007.1
20260506194241 90 190 0.0 0.9 0.00 0.00 0.00 71 1007.1
20260506193732 89 167 0.0 2.6 0.00 0.00 0.00 72 1007.1
20260506193226 88 144 0.0 2.6 0.00 0.00 0.00 72 1007.1
20260506192722 88 124 0.0 1.7 0.00 0.00 0.00 73 1007.5
20260506192218 88 176 0.0 3.5 0.00 0.00 0.00 72 1007.5
20260506191712 89 145 0.9 3.5 0.00 0.00 0.00 71 1007.5
20260506191208 91 145 0.0 2.6 0.00 0.00 0.00 70 1007.5
20260506190659 90 133 0.0 2.6 0.00 0.00 0.00 71 1007.5
20260506190151 89 186 0.0 2.6 0.00 0.00 0.00 70 1007.5
20260506185645 89 263 0.9 5.2 0.00 0.00 0.00 72 1007.5
20260506185354 89 153 0.0 5.2 0.00 0.00 0.00 72 1007.8
20260506184631 88 188 0.0 2.6 0.00 0.00 0.00 73 1007.8
20260506184128 87 130 0.0 2.6 0.00 0.00 0.00 74 1007.8
20260506183620 88 167 0.0 2.6 0.00 0.00 0.00 73 1007.8
20260506183111 89 152 0.0 0.9 0.00 0.00 0.00 72 1007.8
20260506182603 88 133 0.0 2.6 0.00 0.00 0.00 73 1007.8
20260506182103 87 133 0.0 2.6 0.00 0.00 0.00 75 1008.1
20260506181555 86 147 0.0 0.9 0.00 0.00 0.00 76 1008.1
20260506181047 86 146 0.0 3.5 0.00 0.00 0.00 76 1008.5
20260506180756 85 170 0.0 3.5 0.00 0.00 0.00 78 1008.5
20260506180039 85 110 0.0 0.9 0.00 0.00 0.00 77 1008.5
20260506175529 86 171 0.0 1.7 0.00 0.00 0.00 77 1008.5
20260506175022 85 164 0.0 3.5 0.00 0.00 0.00 79 1008.8
20260506174515 85 157 0.0 3.5 0.00 0.00 0.00 79 1008.8
20260506174013 85 169 0.0 0.9 0.00 0.00 0.00 78 1008.8
20260506173508 85 146 0.0 1.7 0.00 0.00 0.00 78 1008.8
20260506173224 85 223 1.7 1.7 0.00 0.00 0.00 78 1009.1
20260506172452 86 146 0.0 0.9 0.00 0.00 0.00 77 1008.8
20260506171951 84 127 0.0 1.7 0.00 0.00 0.00 79 1009.1
20260506171444 83 95 0.0 5.2 0.00 0.00 0.00 81 1009.1
20260506170936 83 153 0.0 5.2 0.00 0.00 0.00 81 1009.1
20260506170430 84 207 0.0 0.9 0.00 0.00 0.00 80 1009.1
20260506170148 83 134 0.0 0.9 0.00 0.00 0.00 82 1009.1
20260506165641 82 151 0.0 0.9 0.00 0.00 0.00 82 1009.1
20260506164912 82 165 0.9 0.9 0.00 0.00 0.00 83 1009.1
20260506164405 82 141 0.0 0.9 0.00 0.00 0.00 84 1009.1
20260506164125 81 129 0.0 2.6 0.00 0.00 0.00 85 1009.1
20260506163358 82 167 1.7 2.6 0.00 0.00 0.00 85 1009.1
20260506163113 81 116 0.0 1.7 0.00 0.00 0.00 86 1009.1
20260506162344 82 147 0.0 0.9 0.00 0.00 0.00 86 1009.1
20260506161839 81 149 0.0 0.9 0.00 0.00 0.00 86 1009.1
20260506160829 81 102 0.0 0.9 0.00 0.00 0.00 84 1008.8
20260506160322 81 127 0.0 0.9 0.00 0.00 0.00 83 1008.8
20260506155813 82 146 0.0 0.0 0.00 0.00 0.00 83 1008.8
20260506155307 82 154 0.0 0.9 0.00 0.00 0.00 82 1008.8
20260506154758 82 118 0.0 0.9 0.00 0.00 0.00 83 1008.5
20260506154251 81 147 0.0 1.7 0.00 0.00 0.00 82 1008.8
20260506153749 81 155 0.0 1.7 0.00 0.00 0.00 83 1008.8
20260506153243 82 132 0.0 0.9 0.00 0.00 0.00 83 1008.5
20260506152737 82 127 0.9 0.9 0.00 0.00 0.00 83 1008.5
20260506152232 82 136 0.0 1.7 0.00 0.00 0.00 82 1008.5
20260506151215 82 102 0.0 0.9 0.00 0.00 0.00 82 1008.1
20260506150707 82 209 0.0 0.9 0.00 0.00 0.00 82 1008.1
20260506150423 82 133 0.0 0.0 0.00 0.00 0.00 82 1008.1
20260506145703 82 130 0.0 0.9 0.00 0.00 0.00 82 1008.1
20260506145154 82 98 0.0 0.9 0.00 0.00 0.00 83 1008.1
20260506144646 82 135 0.0 1.7 0.00 0.00 0.00 82 1008.1
20260506144141 82 137 0.0 1.7 0.00 0.00 0.00 83 1007.8
20260506143636 82 134 0.0 0.9 0.00 0.00 0.00 83 1007.8
20260506143356 81 159 0.0 0.9 0.00 0.00 0.00 83 1007.8
20260506142623 81 117 0.0 1.7 0.00 0.00 0.00 84 1007.8
20260506142114 81 105 0.0 2.6 0.00 0.00 0.00 84 1007.5
20260506141612 81 151 0.9 2.6 0.00 0.00 0.00 85 1007.8
20260506141331 80 218 1.7 2.6 0.00 0.00 0.00 85 1007.8
20260506140600 80 94 0.0 2.6 0.00 0.00 0.00 86 1007.8
20260506140054 80 118 0.9 2.6 0.00 0.00 0.00 86 1007.8
20260506135550 80 117 0.0 0.0 0.00 0.00 0.00 87 1007.8
20260506134750 79 132 0.0 0.0 0.00 0.00 0.00 89 1007.8
20260506134242 79 137 0.0 1.7 0.00 0.00 0.00 90 1007.8
20260506133733 78 141 0.0 1.7 0.00 0.00 0.00 90 1007.8
20260506133002 78 132 0.0 0.0 0.00 0.00 0.00 90 1008.1
20260506132717 78 124 0.0 0.0 0.00 0.00 0.00 91 1008.1
20260506131948 78 121 0.0 0.0 0.00 0.00 0.00 91 1008.1
20260506131441 78 128 0.0 0.0 0.00 0.00 0.00 91 1008.1
20260506130939 77 121 0.0 0.0 0.00 0.00 0.00 91 1008.1
20260506130430 77 123 0.0 0.0 0.00 0.00 0.00 91 1008.1
20260506125922 77 125 0.0 0.0 0.00 0.00 0.00 92 1008.1
20260506125417 77 146 0.0 0.0 0.00 0.00 0.00 92 1008.1
20260506124904 77 137 0.0 0.0 0.00 0.00 0.00 92 1008.1
20260506124618 77 130 0.0 3.5 0.00 0.00 0.00 92 1008.1
20260506123851 77 130 0.0 3.5 0.00 0.00 0.00 92 1008.1
20260506123343 77 134 0.0 0.0 0.00 0.00 0.00 92 1008.1
20260506123048 77 128 0.0 0.0 0.00 0.00 0.00 92 1008.1
20260506122325 77 133 0.0 0.9 0.00 0.00 0.00 92 1007.8
20260506121817 76 123 0.0 1.7 0.00 0.00 0.00 92 1007.8
20260506121310 76 167 0.0 1.7 0.00 0.00 0.00 92 1007.8
20260506120810 76 148 0.0 0.9 0.00 0.00 0.00 92 1007.8
20260506120303 76 136 0.0 0.9 0.00 0.00 0.00 93 1007.5
20260506115757 76 132 0.0 0.9 0.00 0.00 0.00 93 1007.5
20260506115250 76 129 0.0 1.7 0.00 0.00 0.00 93 1007.5
20260506114751 76 129 1.7 1.7 0.00 0.00 0.00 93 1007.5
20260506114508 76 122 0.0 1.7 0.00 0.00 0.00 93 1007.5
20260506113954 76 124 0.0 1.7 0.00 0.00 0.00 93 1007.5
20260506113231 76 123 0.0 0.9 0.00 0.00 0.00 93 1007.5
20260506112731 76 134 0.0 1.7 0.00 0.00 0.00 93 1007.1
20260506111717 76 142 0.0 2.6 0.00 0.00 0.00 93 1007.1
20260506111212 76 130 0.0 0.0 0.00 0.00 0.00 93 1007.1
20260506110707 76 140 0.0 0.0 0.00 0.00 0.00 93 1006.8
20260506110159 76 120 0.0 0.0 0.00 0.00 0.00 93 1007.1
20260506105653 76 114 0.0 0.0 0.00 0.00 0.00 93 1006.8
20260506105144 76 120 0.0 0.9 0.00 0.00 0.00 93 1006.8
20260506104643 76 126 0.0 0.9 0.00 0.00 0.00 93 1006.8
20260506104137 76 145 0.0 0.9 0.00 0.00 0.00 93 1006.8
20260506103630 76 129 0.0 0.9 0.00 0.00 0.00 93 1006.8
20260506103123 76 141 0.0 0.9 0.00 0.00 0.00 93 1006.8
20260506102621 76 127 0.0 0.9 0.00 0.00 0.00 92 1006.8
20260506102115 76 154 0.0 1.7 0.00 0.00 0.00 92 1006.4
20260506101609 76 126 0.0 1.7 0.00 0.00 0.00 92 1006.8
20260506101103 76 184 0.0 0.9 0.00 0.00 0.00 92 1006.4
20260506100600 76 103 0.0 0.9 0.00 0.00 0.00 92 1006.8
20260506100053 76 135 0.0 0.9 0.00 0.00 0.00 92 1006.4
20260506095041 76 141 0.0 0.9 0.00 0.00 0.00 92 1006.8
20260506094539 76 140 0.0 0.0 0.00 0.00 0.00 92 1006.4
20260506094031 76 140 0.0 0.9 0.00 0.00 0.00 92 1006.4
20260506093525 76 139 0.0 0.9 0.00 0.00 0.00 92 1006.4
20260506093245 76 130 0.0 1.7 0.00 0.00 0.00 91 1006.8
20260506092510 76 132 0.0 1.7 0.00 0.00 0.00 91 1006.4
20260506092230 76 126 0.0 0.9 0.00 0.00 0.00 91 1006.4
20260506091456 76 125 0.0 0.0 0.00 0.00 0.00 91 1006.4
20260506091209 76 124 0.0 0.9 0.00 0.00 0.00 91 1006.8
20260506090448 76 123 0.0 0.9 0.00 0.00 0.00 90 1006.8
20260506090206 76 138 0.0 1.7 0.00 0.00 0.00 90 1006.8
20260506085434 77 133 0.0 1.7 0.00 0.00 0.00 90 1006.8
20260506084927 77 131 0.0 0.9 0.00 0.00 0.00 90 1006.8
20260506084424 77 141 0.0 1.7 0.00 0.00 0.00 90 1006.8
20260506084145 77 100 0.0 1.7 0.00 0.00 0.00 90 1006.8
20260506083629 77 92 0.0 0.9 0.00 0.00 0.00 90 1006.8
20260506082906 77 142 0.0 2.6 0.00 0.00 0.00 90 1006.8
20260506082404 77 149 0.0 2.6 0.00 0.00 0.00 90 1007.1
20260506081857 77 132 0.0 0.0 0.00 0.00 0.00 90 1007.1
20260506081351 77 158 0.0 1.7 0.00 0.00 0.00 90 1007.1
20260506080845 77 153 0.0 1.7 0.00 0.00 0.00 90 1007.1
20260506080337 77 124 0.0 2.6 0.00 0.00 0.00 89 1007.1
20260506073529 77 150 0.0 0.9 0.00 0.00 0.00 89 1007.5
20260506072757 77 143 0.0 1.7 0.00 0.00 0.00 89 1007.5
20260506072524 77 114 0.0 1.7 0.00 0.00 0.00 89 1007.5
20260506071751 78 138 0.0 0.9 0.00 0.00 0.00 89 1007.5
20260506071245 78 133 0.0 0.9 0.00 0.00 0.00 89 1007.5
20260506070740 78 133 0.0 0.9 0.00 0.00 0.00 89 1007.5
20260506070238 78 111 0.0 1.7 0.00 0.00 0.00 89 1007.5
20260506062158 78 140 0.0 0.9 0.00 0.00 0.00 89 1007.8
20260506061652 78 139 0.0 0.9 0.00 0.00 0.00 89 1007.8
20260506061142 78 135 0.0 0.9 0.00 0.00 0.00 89 1007.8
20260506060634 78 158 0.0 0.9 0.00 0.00 0.00 89 1007.8
20260506060133 78 147 0.0 3.5 0.00 0.00 0.00 88 1007.8
20260506051035 78 157 0.0 0.9 0.00 0.00 0.00 87 1007.5
20260506050528 78 148 0.0 5.2 0.00 0.00 0.00 87 1007.8
20260506045010 78 172 0.9 0.9 0.00 0.00 0.00 87 1007.8
20260506044001 78 163 0.0 6.1 0.00 0.00 0.00 87 1007.8
20260506043452 78 129 0.0 6.1 0.00 0.00 0.00 88 1007.8
20260506042945 78 143 0.0 0.9 0.00 0.00 0.00 87 1007.8
20260506042439 78 171 0.0 2.6 0.00 0.00 0.00 87 1007.5
20260506041935 78 114 0.0 2.6 0.00 0.00 0.00 87 1007.5
20260506041652 78 88 0.0 3.5 0.00 0.00 0.00 87 1007.5
20260506040925 78 142 0.0 3.5 0.00 0.00 0.00 87 1008.1
20260506040417 78 166 0.0 2.6 0.00 0.00 0.00 86 1007.8
20260506035911 79 106 0.0 2.6 0.00 0.00 0.00 86 1007.8
20260506035615 79 143 0.0 5.2 0.00 0.00 0.00 86 1007.5
20260506034850 79 124 0.0 5.2 0.00 0.00 0.00 85 1007.5
20260506034343 79 117 0.0 3.5 0.00 0.00 0.00 85 1007.5
20260506033837 79 163 1.7 3.5 0.00 0.00 0.00 84 1007.5
20260506033326 79 147 0.0 2.6 0.00 0.00 0.00 84 1007.5
20260506032818 79 129 0.0 2.6 0.00 0.00 0.00 85 1007.1
20260506032311 79 104 0.0 2.6 0.00 0.00 0.00 84 1007.1
20260506031806 79 169 0.0 2.6 0.00 0.00 0.00 84 1007.1
20260506031255 79 132 0.0 1.7 0.00 0.00 0.00 84 1007.1
20260506030749 79 111 0.0 2.6 0.00 0.00 0.00 84 1007.1
20260506030500 79 296 0.0 2.6 0.00 0.00 0.00 84 1007.1
20260506025737 79 121 0.0 2.6 0.00 0.00 0.00 84 1007.1
20260506025237 79 131 0.0 2.6 0.00 0.00 0.00 84 1006.8
20260506024729 79 161 0.0 2.6 0.00 0.00 0.00 83 1006.8
20260506024221 80 118 0.0 2.6 0.00 0.00 0.00 83 1006.8
20260506023935 79 146 0.0 2.6 0.00 0.00 0.00 83 1006.8
20260506023213 80 175 0.0 2.6 0.00 0.00 0.00 83 1006.8
20260506022706 80 138 0.0 2.6 0.00 0.00 0.00 83 1006.4
20260506022201 80 152 1.7 2.6 0.00 0.00 0.00 83 1006.4
20260506021919 80 185 0.0 2.6 0.00 0.00 0.00 83 1006.4
20260506021149 80 149 0.0 2.6 0.00 0.00 0.00 83 1006.4
20260506020645 80 163 1.7 2.6 0.00 0.00 0.00 82 1006.4
20260506020137 80 176 0.0 3.5 0.00 0.00 0.00 82 1006.4
20260506015630 80 151 0.0 3.5 0.00 0.00 0.00 82 1006.4
20260506015128 80 121 1.7 2.6 0.00 0.00 0.00 82 1006.1
20260506014618 80 136 0.0 1.7 0.00 0.00 0.00 82 1006.1
20260506014111 80 126 0.0 1.7 0.00 0.00 0.00 82 1006.1
20260506013602 80 139 0.0 5.2 0.00 0.00 0.00 81 1006.1
20260506013101 80 155 0.0 5.2 0.00 0.00 0.00 81 1005.8
20260506012819 80 141 0.0 2.6 0.00 0.00 0.00 81 1005.8
20260506012046 80 174 0.0 2.6 0.00 0.00 0.00 80 1005.8
20260506011536 81 107 0.0 2.6 0.00 0.00 0.00 80 1005.8
20260506011036 81 128 0.0 2.6 0.00 0.00 0.00 80 1005.8
20260506010529 81 170 0.9 7.8 0.00 0.00 0.00 80 1005.4
20260506010021 81 202 1.7 7.8 0.00 0.00 0.00 80 1005.8
20260506005514 81 119 3.5 7.0 0.00 0.00 0.00 79 1005.4
20260506005014 81 120 0.0 7.0 0.00 0.00 0.00 80 1005.4
20260506004506 81 138 0.0 5.2 0.00 0.00 0.00 79 1005.4
20260506004000 82 129 1.7 5.2 0.00 0.00 0.00 79 1005.4
20260506003452 82 170 0.0 3.5 0.00 0.00 0.00 78 1005.4
20260506002949 82 154 0.0 3.5 0.00 0.00 0.00 78 1005.4
20260506002715 81 117 0.0 5.2 0.00 0.00 0.00 79 1005.1
20260506001938 81 151 0.0 5.2 0.00 0.00 0.00 79 1005.1
20260506001432 82 171 0.9 3.5 0.00 0.00 0.00 78 1005.4
20260506000931 82 198 2.6 3.5 0.00 0.00 0.00 78 1005.4
20260506000423 82 177 0.0 6.1 0.00 0.00 0.00 78 1005.4
20260505235917 82 138 0.9 3.5 0.00 0.00 0.00 78 1005.4
20260505235413 82 170 0.9 7.0 0.00 0.00 0.00 78 1005.1
20260505235139 82 123 1.7 7.0 0.00 0.00 0.00 78 1005.1
20260505234401 82 181 0.9 6.1 0.00 0.00 0.00 77 1005.1
20260505233853 82 215 1.7 5.2 0.00 0.00 0.00 78 1005.1
20260505233344 82 168 0.0 2.6 0.00 0.00 0.00 78 1005.1
20260505233107 82 159 0.0 3.5 0.00 0.00 0.00 78 1005.4
20260505232335 83 133 0.0 6.1 0.00 0.00 0.00 77 1005.1
20260505231826 83 123 1.7 6.1 0.00 0.00 0.00 77 1005.1
20260505231318 83 112 1.7 5.2 0.00 0.00 0.00 77 1005.4
20260505230818 83 268 2.6 5.2 0.00 0.00 0.00 77 1005.1
20260505230532 83 148 0.9 5.2 0.00 0.00 0.00 77 1005.4
20260505225255 83 153 0.0 6.1 0.00 0.00 0.00 76 1005.4
20260505224756 83 153 0.9 6.1 0.00 0.00 0.00 76 1005.1
20260505224246 83 164 2.6 7.8 0.00 0.00 0.00 76 1005.4
20260505223738 84 194 4.3 7.8 0.00 0.00 0.00 75 1005.4
20260505223231 84 172 0.0 7.8 0.00 0.00 0.00 75 1005.1
20260505222730 84 213 1.7 7.8 0.00 0.00 0.00 75 1005.4
20260505222222 84 189 3.5 7.8 0.00 0.00 0.00 75 1005.4
20260505221714 84 167 0.9 7.8 0.00 0.00 0.00 75 1005.4
20260505221437 85 101 0.0 6.1 0.00 0.00 0.00 74 1005.4
20260505220705 85 159 0.0 6.1 0.00 0.00 0.00 74 1005.4
20260505220158 85 65 0.0 6.1 0.00 0.00 0.00 73 1005.4
20260505215649 85 155 2.6 6.1 0.00 0.00 0.00 73 1005.4
20260505215142 85 162 0.0 7.0 0.00 0.00 0.00 73 1005.8
20260505214642 85 149 0.9 7.0 0.00 0.00 0.00 73 1005.4
20260505214136 85 166 3.5 7.0 0.00 0.00 0.00 73 1005.8
20260505213630 86 117 2.6 9.6 0.00 0.00 0.00 73 1005.8